Home   Weather   Winamac   Past weeks

Flag for USA Past Weather in Winamac, Indiana, USA — Yesterday and Last 2 Weeks

Now
74 °F

Sunny.


Feels Like: 77 °F
Forecast: 62 / 79 °F
Wind: 13 mph from North

Location: Porter County Municipal Airport

Current Time: Aug 31, 2016 at 5:51:01 PM

Latest Report: Aug 31, 2016 at 4:56 PM


Visibility: 10 mi

Pressure: 30.03 "Hg

Humidity: 62%

Dew Point: 60 °F

Location of WinamacLocation

Past Weather in Winamac — Graph

°F

Winamac Temperature Yesterday

Maximum temperature yesterday: 82 °F (at 3:56 PM)
Minimum temperature yesterday: 68 °F (at 5:56 AM)
Average temperature yesterday: 74 °F

High & Low Weather Summary for the Past Weeks

 TemperatureHumidityPressure
High87 °F (Aug 29, 4:56 PM)100% (Aug 17, 6:56 AM)30.25 "Hg (Aug 17, 6:56 AM)
Low53 °F (Aug 23, 6:56 AM)45% (Aug 22, 12:56 PM)29.61 "Hg (Aug 20, 3:56 PM)
Average72 °F82%30.05 "Hg
* Reported Aug 16 3:56 PM — Aug 31 3:56 PM, Winamac, Weather by CustomWeather, © 2016

Note: Actual official high and low records may vary slightly from our data, if they occured in-between our weather recording intervals... More about our weather records

Advertising

Winamac Weather History for the Previous 24 Hours

Scroll right to see more
 ConditionsComfort  
Time TempWeatherWind HumidityBarometerVisibility
3:56 PM
Wed, Aug 31
73 °FSunny.12 mph64%30.03 "Hg10 mi
2:56 PM74 °FPassing clouds.14 mph74%30.03 "Hg10 mi
1:56 PM77 °FBroken clouds.13 mph74%30.02 "Hg10 mi
12:56 PM78 °FScattered clouds.9 mph74%30.03 "Hg10 mi
11:56 AM76 °FBroken clouds.9 mph80%30.02 "Hg10 mi
10:56 AM76 °FScattered clouds.7 mph82%30.02 "Hg10 mi
9:56 AM75 °FScattered clouds.8 mph85%30.02 "Hg10 mi
8:56 AM73 °FPassing clouds.3 mph90%30.03 "Hg10 mi
7:56 AM71 °FSunny.3 mph93%30.02 "Hg10 mi
6:56 AM70 °FClear.3 mph93%30.01 "Hg10 mi
5:56 AM70 °FClear.3 mph93%30.01 "Hg10 mi
4:56 AM70 °FClear.3 mph97%30.02 "Hg10 mi
3:56 AM71 °FPassing clouds.No wind93%30.01 "Hg10 mi
2:56 AM72 °FPassing clouds.3 mph93%30.02 "Hg10 mi
1:56 AM72 °FClear.5 mph93%30.03 "Hg10 mi
12:56 AM72 °FClear.5 mph93%30.04 "Hg10 mi
11:56 PM
Tue, Aug 30
73 °FClear.No wind90%30.04 "Hg10 mi
10:56 PM72 °FClear.No wind93%30.05 "Hg10 mi
9:56 PM74 °FClear.3 mph88%30.04 "Hg10 mi
8:56 PM77 °FClear.3 mph79%30.03 "Hg10 mi
7:56 PM78 °FSunny.5 mph79%30.03 "Hg10 mi
6:56 PM80 °FPassing clouds.6 mph74%30.03 "Hg10 mi
5:56 PM80 °FBroken clouds.9 mph74%30.04 "Hg10 mi
Weather by CustomWeather, © 2016

See weather overviewHow to use our weather pages